This is the latest recevied weather packets stored in our database for station/object WB5CFT. If no packets are shown the sender has not sent any weather packets the latest 10 day(s).
| Time | Temp. | Humidity | Pressure | Rain* | Wind** | Luminosity | Snow |
|---|---|---|---|---|---|---|---|
| 1777568708 | 16.11° C | 56% | 1017.1 hPa | 0 mm | - | 238 W/m² | - |
| 1777568405 | 16.11° C | 57% | 1016.9 hPa | 0 mm | - | 261 W/m² | - |
| 1777568103 | 16.11° C | 56% | 1017 hPa | 0 mm | - | 252 W/m² | - |
| 1777567799 | 15.56° C | 59% | 1016.9 hPa | 0 mm | - | 242 W/m² | - |
| 1777567495 | 15.56° C | 58% | 1017 hPa | 0 mm | - | 222 W/m² | - |
| 1777567192 | 15.56° C | 58% | 1017 hPa | 0 mm | - | 254 W/m² | - |
| 1777566890 | 15.56° C | 58% | 1016.9 hPa | 0 mm | - | 328 W/m² | - |
| 1777566588 | 15° C | 59% | 1016.9 hPa | 0 mm | - | 229 W/m² | - |
| 1777566285 | 15.56° C | 58% | 1017.1 hPa | 0 mm | - | 236 W/m² | - |
| 1777565983 | 15.56° C | 59% | 1017.3 hPa | 0 mm | - | 223 W/m² | - |
| 1777565683 | 15° C | 59% | 1017.1 hPa | 0 mm | - | 239 W/m² | - |
| 1777565381 | 15° C | 59% | 1017 hPa | 0 mm | - | 257 W/m² | - |
| 1777565076 | 15° C | 59% | 1016.7 hPa | 0 mm | - | 264 W/m² | - |
| 1777564772 | 15° C | 59% | 1016.9 hPa | 0 mm | - | 205 W/m² | - |
| 1777564468 | 15° C | 59% | 1017.1 hPa | 0 mm | - | 154 W/m² | - |
| 1777564163 | 14.44° C | 60% | 1016.7 hPa | 0 mm | - | 140 W/m² | - |
| 1777563860 | 14.44° C | 60% | 1016.7 hPa | 0 mm | - | 103 W/m² | - |
| 1777563556 | 14.44° C | 60% | 1016.9 hPa | 0 mm | - | 79 W/m² | - |
| 1777563255 | 14.44° C | 60% | 1016.7 hPa | 0 mm | - | 79 W/m² | - |
| 1777562953 | 14.44° C | 60% | 1016.7 hPa | 0 mm | - | 76 W/m² | - |
| 1777562649 | 15° C | 60% | 1016.6 hPa | 0 mm | - | 96 W/m² | - |
| 1777562348 | 14.44° C | 60% | 1016.6 hPa | 0 mm | - | 121 W/m² | - |
| 1777562044 | 15° C | 59% | 1016.8 hPa | 0 mm | - | 139 W/m² | - |
| 1777561741 | 15° C | 62% | 1017 hPa | 0 mm | - | 159 W/m² | - |
| 1777561436 | 14.44° C | 62% | 1016.4 hPa | 0 mm | - | 161 W/m² | - |
* Rain latest hour (hover to see other rain measurements)
** Current wind speed in m/s (hover to see current wind gust speed)